Weather History for KBGR - July, 2012

Change the Weather History Date:

Saturday, July 7, 2012

  Actual Average Record
Temperature  
Mean Temperature 78 °F 68 °F  
Max Temperature 89 °F 79 °F 95 °F (1993)
Min Temperature 67 °F 57 °F 41 °F (1969)
Degree Days  
Heating Degree Days 0 1  
Month to date heating degree days 0 7  
Since 1 June heating degree days 121 114  
Since 1 July heating degree days 0 7  
Cooling Degree Days 13 4  
Month to date cooling degree days 49 26  
Year to date cooling degree days 109 84  
Since 1 June cooling degree days 96 78  
Growing Degree Days 27 (Base 50)    
Moisture  
Dew Point 62 °F    
Average Humidity 64    
Maximum Humidity 93    
Minimum Humidity 35    
Precipitation  
Precipitation 0.01 in 0.11 in 0.94 in (1986)
Month to date precipitation 0.20 0.73  
Year to date precipitation 21.31 20.54  
Snow  
Snow 0.00 in 0.00 in 0.00 in (2002)
Month to date snowfall 0.0 0.0  
Since 1 June snowfall 0.0 0.0  
Since 1 July snowfall 0.0 0.0  
Snow Depth 0.00 in    
Sea Level Pressure  
Sea Level Pressure 29.67 in    
Wind  
Wind Speed 7 mph (WNW)    
Max Wind Speed 17 mph    
Max Gust Speed 23 mph    
Visibility 10 miles    
Events      
T = Trace of Precipitation, MM = Missing Value Source: NWS Daily Summary

Daily Weather History Graph

Daily Weather History Graph

Search for Another Location

Airport or City:

Trip Planner

Search our weather history database for the weather conditions in past years. The results will help you decide how hot, cold, wet, or windy it might be!

Date:

Astronomy

Jul. 07, 2012 Rise Set
Actual Time 4:57 AM EDT 8:22 PM EDT
Civil Twilight 4:20 AM EDT 8:59 PM EDT
Nautical Twilight 3:33 AM EDT 9:46 PM EDT
Astronomical Twilight 2:32 AM EDT 10:47 PM EDT
Moon 10:25 PM EDT (7/7) 9:31 AM EDT (7/7)
Length of Visible Light 16h 38m
Length of Day
15h 25m
Waning Gibbous, 82% of the Moon is Illuminated
Jul 7
Waning Gibbous
Jul 10
Last Quarter
Jul 19
New
Jul 26
First Quarter
Aug 1
Full

Hourly Weather History & Observations

Time (EDT) Temp. Heat Index Dew Point Humidity Pressure Visibility Wind Dir Wind Speed Gust Speed Precip Events Conditions
12:53 AM 69.1 °F - 64.0 °F 84% 29.74 in 10.0 mi South 8.1 mph - N/A   Overcast
1:53 AM 69.1 °F - 64.0 °F 84% 29.72 in 10.0 mi South 8.1 mph - N/A   Overcast
2:53 AM 69.1 °F - 64.0 °F 84% 29.70 in 10.0 mi South 6.9 mph - N/A   Overcast
3:53 AM 69.1 °F - 64.0 °F 84% 29.69 in 10.0 mi South 4.6 mph - N/A   Overcast
4:53 AM 66.9 °F - 64.0 °F 90% 29.68 in 10.0 mi Calm Calm - N/A   Overcast
5:53 AM 69.1 °F - 64.9 °F 87% 29.67 in 10.0 mi Calm Calm - N/A   Overcast
6:53 AM 72.0 °F - 66.0 °F 81% 29.68 in 10.0 mi West 4.6 mph - N/A   Overcast
7:53 AM 75.0 °F - 66.9 °F 76% 29.68 in 10.0 mi West 8.1 mph - N/A   Mostly Cloudy
8:53 AM 80.1 °F 82.3 °F 66.9 °F 64% 29.68 in 10.0 mi WNW 8.1 mph - N/A   Mostly Cloudy
9:53 AM 82.9 °F 84.6 °F 64.9 °F 54% 29.65 in 10.0 mi NW 8.1 mph - N/A   Scattered Clouds
10:53 AM 84.9 °F 85.0 °F 61.0 °F 44% 29.65 in 10.0 mi NW 10.4 mph 18.4 mph N/A   Scattered Clouds
11:53 AM 86.0 °F 84.5 °F 55.0 °F 35% 29.64 in 10.0 mi West 10.4 mph 23.0 mph N/A   Scattered Clouds
12:53 PM 86.0 °F 84.5 °F 55.0 °F 35% 29.64 in 10.0 mi NNW 13.8 mph 20.7 mph N/A   Scattered Clouds
1:53 PM 87.1 °F 85.9 °F 57.0 °F 36% 29.63 in 10.0 mi WNW 5.8 mph - N/A   Scattered Clouds
2:53 PM 88.0 °F 88.4 °F 62.1 °F 42% 29.62 in 10.0 mi NNW 12.7 mph 19.6 mph N/A   Scattered Clouds
3:53 PM 82.9 °F 84.0 °F 63.0 °F 51% 29.62 in 10.0 mi WNW 5.8 mph - N/A   Mostly Cloudy
4:53 PM 81.0 °F 82.2 °F 63.0 °F 54% 29.63 in 10.0 mi NNW 11.5 mph - 0.01 in   Overcast
5:53 PM 82.9 °F 84.0 °F 63.0 °F 51% 29.63 in 10.0 mi North 13.8 mph - N/A   Mostly Cloudy
6:53 PM 80.1 °F 81.5 °F 63.0 °F 56% 29.64 in 10.0 mi NNW 9.2 mph - N/A   Mostly Cloudy
7:53 PM 75.0 °F - 64.0 °F 69% 29.65 in 10.0 mi NW 3.5 mph - N/A   Scattered Clouds
8:53 PM 75.0 °F - 63.0 °F 66% 29.68 in 10.0 mi West 5.8 mph - N/A   Scattered Clouds
9:53 PM 73.9 °F - 61.0 °F 64% 29.70 in 10.0 mi WNW 6.9 mph - N/A   Partly Cloudy
10:53 PM 71.1 °F - 59.0 °F 66% 29.70 in 10.0 mi West 5.8 mph - N/A   Partly Cloudy
11:53 PM 69.1 °F - 57.0 °F 65% 29.71 in 10.0 mi West 6.9 mph - N/A   Clear